This is the latest recevied weather packets stored in our database for station/object KM4CBK. If no packets are shown the sender has not sent any weather packets the latest 10 day(s).
| Time | Temp. | Humidity | Pressure | Rain* | Wind** | Luminosity | Snow |
|---|---|---|---|---|---|---|---|
| 1777484936 | 27.22° C | 76% | 1012 hPa | 0 mm | - | 258 W/m² | - |
| 1777484634 | 27.78° C | 78% | 1012.2 hPa | 0 mm | - | 395 W/m² | - |
| 1777484330 | 27.22° C | 79% | 1012.1 hPa | 0 mm | - | 799 W/m² | - |
| 1777484026 | 26.67° C | 78% | 1012.3 hPa | 0 mm | - | 339 W/m² | - |
| 1777483723 | 26.67° C | 77% | 1012.4 hPa | 0 mm | - | 237 W/m² | - |
| 1777483418 | 26.67° C | 79% | 1012.5 hPa | 0 mm | - | 253 W/m² | - |
| 1777483113 | 27.78° C | 77% | 1012.4 hPa | 0 mm | - | 480 W/m² | - |
| 1777482811 | 27.22° C | 80% | 1012.3 hPa | 0 mm | - | 823 W/m² | - |
| 1777482506 | 27.22° C | 83% | 1012.6 hPa | 0 mm | - | 504 W/m² | - |
| 1777482204 | 27.22° C | 77% | 1012.6 hPa | 0 mm | - | 716 W/m² | - |
| 1777481901 | 26.67° C | 80% | 1012.7 hPa | 0 mm | - | 701 W/m² | - |
| 1777481599 | 26.67° C | 80% | 1012.6 hPa | 0 mm | - | 712 W/m² | - |
| 1777481296 | 27.22° C | 79% | 1012.8 hPa | 0 mm | - | 546 W/m² | - |
| 1777480992 | 26.67° C | 78% | 1012.8 hPa | 0 mm | - | 718 W/m² | - |
| 1777480689 | 26.67° C | 85% | 1012.7 hPa | 0 mm | - | 286 W/m² | - |
| 1777480385 | 26.11° C | 84% | 1013 hPa | 0 mm | - | 673 W/m² | - |
| 1777480081 | 26.11° C | 84% | 1013 hPa | 0 mm | - | 204 W/m² | - |
| 1777479778 | 25.56° C | 85% | 1013.1 hPa | 0 mm | - | 618 W/m² | - |
| 1777479476 | 25.56° C | 88% | 1013.2 hPa | 0 mm | - | 724 W/m² | - |
| 1777479172 | 25° C | 89% | 1013.1 hPa | 0 mm | - | 717 W/m² | - |
| 1777478869 | 25° C | 91% | 1013.2 hPa | 0 mm | - | 692 W/m² | - |
| 1777478565 | 23.89° C | 94% | 1013.1 hPa | 0 mm | - | 658 W/m² | - |
| 1777478263 | 23.89° C | 96% | 1012.9 hPa | 0 mm | - | 656 W/m² | - |
| 1777477958 | 22.78° C | 99% | 1013.1 hPa | 0 mm | - | 637 W/m² | - |
| 1777477654 | 22.78° C | 99% | 1013.1 hPa | 0 mm | - | 603 W/m² | - |
* Rain latest hour (hover to see other rain measurements)
** Current wind speed in m/s (hover to see current wind gust speed)